STARLINK-1111 (44924 NORAD) Tracking and Keplerian Element Data

This shows tracking and keplerian element data for the satellite.

Feedback or suggestion? Click here.




ElementValue
Catalog44924
NameSTARLINK-1111
Epoch Orbit715
Epoch Day53.25001157
Epoch Year2020
RAAN176.2021
Inclination53.0002
Eccentricity0.0001535
Argument of Perigee72.7603
Mean Anonmoly185.0159
Mean Motion15.05550324
Decay Rate0.00174905
L11 44924U 20001L 20053.25001157 .00174905 00000-0 11738-1 0 9994
L22 44924 53.0002 176.2021 0001535 72.7603 185.0159 15.05550324 7155

Live tracking and technical data element details for STARLINK-1111 (NORAD 44924). STARLINK-1111 can be tracked NOW for your location showing map with azimuth and elevation plus other details from your city location.

Track the satellite on the map from your city or location and see movement details for azimuth, elevation, latitude, longitude, range, height, and movement on the map or in text.







IsCatalogInMostPopularTable: catalog: 44924, numindb: 13
Update: records affected: 1



GetName: 44924 STARLINK-1111

Hit Count: updated at: Mon, 24 Feb 2020 17:55:23 GMT